Location: Middle Street
(51.7167°N, 0.0333°E)
Time: 02:49:42
(UTC+00:00)

Okean O Rocket - Pass Details

Date: 20 January 2021
Orbit: 622 x 645 km, 98.2° (Epoch: 24 February)

Event Time Altitude Azimuth Distance (km) Brightness Sun altitude
Rises 18:11:19 0° 189° (S) 2,944 5.3 -15.6°
Reaches altitude 10° 18:13:42 10° 199° (SSW) 2,037 4.6 -15.9°
Maximum altitude 18:17:43 33° 264° (W) 1,081 3.5 -16.5°
Drops below altitude 10° 18:21:45 10° 329° (NNW) 2,042 4.5 -17.2°
Sets 18:24:09 0° 339° (NNW) 2,953 5.2 -17.5°
